Location: ??
(35.5090°N, 139.6783°E)
Time: 18:53:37
(UTC+00:00)

YAOGAN 1 - Pass Details

Date: 08 November 2025
Orbit: 605 x 607 km, 97.8° (Epoch: 08 December)

Event Time Altitude Azimuth Distance (km) Brightness Sun altitude
Rises 08:00:22 0° 119° (ESE) 2,856 5.5 -4.8°
Reaches altitude 10° 08:03:51 10° 88° (E) 1,958 4.5 -5.4°
Maximum altitude 08:05:26 12° 66° (ENE) 1,836 4.3 -5.7°
Drops below altitude 10° 08:07:01 10° 44° (NE) 1,962 4.6 -6.1°
Sets 08:10:31 0° 13° (NNE) 2,871 5.7 -6.7°
